Location: Newark
(48.7875°N, 2.3928°E)
Time: 00:09:20
(UTC+00:00)

N. Korean satellite - Pass Details

Date: 29 October 2019
Orbit: 456 x 506 km, 97.2° (Epoch: 20 November)

Event Time Altitude Azimuth Distance (km) Brightness Sun altitude
Rises 05:38:26 0° 15° (NNE) 2,589 10.3 -9.3°
Reaches altitude 10° 05:40:32 10° 20° (NNE) 1,709 9.5 -9.0°
Maximum altitude 05:44:11 60° 101° (E) 580 7.3 -8.4°
Drops below altitude 10° 05:47:50 10° 182° (S) 1,712 9.5 -7.8°
Sets 05:49:56 0° 186° (S) 2,594 10.3 -7.5°
